Location: Kershaw
(34.5481°N, 80.5823°W)
Time: 15:12:04
(UTC+00:00)

Vanguard 1 Rocket - Pass Details

Date: 03 October 2022
Orbit: 650 x 4225 km, 34.3° (Epoch: 08 December)

Event Time Altitude Azimuth Distance (km) Brightness Sun altitude
Rises 05:20:32 0° 281° (WNW) 6,146 11.7 -59.3°
Enters shadow 05:23:42 - 281° (W) 5,115 11.2 -59.3°
Reaches altitude 10° 05:25:25 10° 280° (W) 4,544 - -59.2°
Maximum altitude 05:36:13 68° 201° (SSW) 1,300 - -58.9°
Drops below altitude 10° 05:41:59 10° 118° (ESE) 2,512 - -58.6°
Sets 05:43:58 0° 116° (ESE) 3,263 - -58.5°
